Tracking 32418 objects as of 9-Dec-2025
HD Live streaming from Space Station
objects crossing your sky now

IRIDIUM 33 DEB

Track IRIDIUM 33 DEB now!
10-day predictions


NORAD ID: 35628
Int'l Code: 1997-051RA
Perigee: 668.5 km
Apogee: 683.9 km
Inclination: 86.4 °
Period: 98.1 minutes
Semi major axis: 7047 km
RCS: 0.0194 m2 (small)
Launch date: September 14, 1997
Source: United States (US)
Launch site: TYURATAM MISSILE AND SPACE COMPLEX (TTMTR)

Note: This is SATELLITE DEBRIS
Your satellite tracking list
Your tracking list is empty




NASA's NSSDC Master Catalog

Two Line Element Set (TLE):
1 35628U 97051RA  25342.82721284  .00011424  00000-0  20098-2 0  9999
2 35628  86.3576  10.8203 0010931 356.3974   3.7159 14.67493768863890
Source of the keplerian elements: AFSPC